Change the Weather History Date:

Wednesday, November 13, 2013

  Actual Average Record
Temperature  
Mean Temperature 56 °F -  
Max Temperature 78 °F 64 °F 82 °F (1999)
Min Temperature 34 °F 35 °F 23 °F (2000)
Degree Days  
Heating Degree Days 9    
Growing Degree Days 6 (Base 50)    
Moisture  
Dew Point 15 °F    
Average Humidity 24    
Maximum Humidity 40    
Minimum Humidity 9    
Precipitation  
Precipitation 0.00 in - - ()
Sea Level Pressure  
Sea Level Pressure 30.12 in    
Wind  
Wind Speed 3 mph (West)    
Max Wind Speed 9 mph    
Max Gust Speed -    
Visibility 10 miles    
Events      
Averages and records for this station are not official NWS values.
T = Trace of Precipitation, MM = Missing Value Source: NWS Daily Summary

Daily Weather History Graph

Daily Weather History Graph

Search for Another Location

Airport or City:

Trip Planner

Search our weather history database for the weather conditions in past years. The results will help you decide how hot, cold, wet, or windy it might be!

Date:

Astronomy

Nov. 13, 2013 Rise Set
Actual Time 6:24 AM PST 4:47 PM PST
Civil Twilight 5:57 AM PST 5:13 PM PST
Nautical Twilight 5:26 AM PST 5:44 PM PST
Astronomical Twilight 4:57 AM PST 6:14 PM PST
Moon 2:29 PM PST (11/13) 2:30 AM PST (11/13)
Length of Visible Light 11h 16m
Length of Day
10h 23m
Waxing Gibbous, 85% of the Moon is Illuminated
Nov 13
Waxing Gibbous
Nov 17
Full
Nov 25
Last Quarter
Dec 2
New
Dec 9
First Quarter

Hourly Weather History & Observations

Time (PST) Temp. Windchill Dew Point Humidity Pressure Visibility Wind Dir Wind Speed Gust Speed Precip Events Conditions
12:58 AM 39.9 °F 36.7 °F 10.6 °F 30% 30.19 in 10.0 mi SE 4.6 mph - N/A   Clear
1:58 AM 40.6 °F 38.6 °F 10.0 °F 29% 30.19 in 10.0 mi NNW 3.5 mph - N/A   Clear
2:58 AM 39.6 °F - 7.9 °F 27% 30.18 in 10.0 mi NNW 2.3 mph - N/A   Clear
3:58 AM 38.8 °F - 7.5 °F 27% 30.16 in 10.0 mi NNE 1.2 mph - N/A   Clear
4:58 AM 38.1 °F - 9.3 °F 30% 30.17 in 10.0 mi Calm Calm - N/A   Clear
5:58 AM 34.9 °F - 5.0 °F 29% 30.17 in 90.0 mi South 1.2 mph - N/A   Clear
6:58 AM 35.6 °F - 5.7 °F 29% 30.20 in 90.0 mi NNE 2.3 mph - N/A   Clear
7:58 AM 42.8 °F - 10.2 °F 26% 30.22 in 90.0 mi Calm Calm - N/A   Clear
8:58 AM 48.7 °F - 12.6 °F 23% 30.20 in 90.0 mi South 2.3 mph - N/A   Clear
9:58 AM 55.9 °F - 17.8 °F 22% 30.20 in 90.0 mi SSW 4.6 mph - N/A   Clear
10:58 AM 63.1 °F - 18.0 °F 18% 30.16 in 90.0 mi NE 2.3 mph - N/A   Clear
11:58 AM 67.3 °F - 16.9 °F 14% 30.12 in 90.0 mi NNE 2.3 mph - N/A   Clear
12:58 PM 71.2 °F - 15.6 °F 12% 30.09 in 90.0 mi North 3.5 mph - N/A   Clear
1:58 PM 75.7 °F - 15.8 °F 10% 30.06 in 90.0 mi Variable 1.2 mph - N/A   Partly Cloudy
2:58 PM 78.1 °F - 15.3 °F 9% 30.03 in 90.0 mi SE 2.3 mph - N/A   Partly Cloudy
3:58 PM 77.4 °F - 16.7 °F 10% 30.04 in 90.0 mi Calm Calm - N/A   Partly Cloudy
4:58 PM 69.6 °F - 15.3 °F 12% 30.04 in 90.0 mi NNW 3.5 mph - N/A   Partly Cloudy
5:58 PM 64.9 °F - 16.2 °F 15% 30.07 in 70.0 mi WNW 9.2 mph - N/A   Partly Cloudy
6:58 PM 64.0 °F - 31.1 °F 29% 30.08 in 50.0 mi Variable 5.8 mph - N/A   Partly Cloudy
7:58 PM 55.0 °F - 19.8 °F 25% 30.09 in 40.0 mi SSW 5.8 mph - N/A   Scattered Clouds
8:58 PM 52.2 °F - 25.5 °F 36% 30.09 in 40.0 mi SW 6.9 mph - N/A   Scattered Clouds
9:58 PM 49.3 °F - 25.5 °F 40% 30.08 in 40.0 mi WSW 4.6 mph - N/A   Scattered Clouds
10:58 PM 45.3 °F - 18.0 °F 34% 30.08 in 10.0 mi West 1.2 mph - N/A   Clear
11:58 PM 42.4 °F 40.7 °F 16.9 °F 36% 30.08 in 10.0 mi South 3.5 mph - N/A   Clear